Flag for Saudi Arabia Weather past 2 weeks in Jeddah, Saudi Arabia

Now
86 °F

Sunny.


Feels Like: 84 °F
Forecast: 74 / 86 °F
Wind: 23 mph from Northwest

Location: Jeddah King Abdul Aziz International Airport

Current Time: Apr 1, 2015 at 4:53:14 PM

Latest Report: Apr 1, 2015 at 4:00 PM


Visibility: 10 mi

Pressure: 29.83 "Hg

Humidity: 29%

Dew point: 50 °F

Location of JeddahLocation

Historic Weather in Jeddah — Graph

°F

Jeddah temperature yesterday

Maximum temperature yesterday: 90 °F (at 12:00 PM)
Minimum temperature yesterday: 77 °F (at 4:00 AM)
Average temperature yesterday: 82 °F

Past Weeks' High & Low Weather Summary

 TemperatureHumidityPressure
High106 °F (Mar 29, 2:00 PM)74% (Mar 31, 4:00 AM)29.95 "Hg (Mar 31, 4:00 AM)
Low70 °F (Mar 21, 7:00 AM)13% (Mar 29, 4:00 PM)29.65 "Hg (Mar 29, 3:00 PM)
Average83 °F49%29.82 "Hg
* Reported Mar 17 4:00 PM — Apr 1 4:00 PM, Jeddah, Weather by CustomWeather, © 2015

Note: Actual official high and low records may vary slightly from our data, if they occured in-between our weather recording intervals... More about our weather records

Advertising

Jeddah weather history for previous 24 hours

 ConditionsComfort  
Time TempWeatherWind HumidityBarometerVisibility
4:00 PM
Wed, Apr 1
86 °FSunny.23 mph29%29.83 "Hg10 mi
3:00 PM88 °FSunny.23 mph24%29.83 "Hg10 mi
2:00 PM88 °FSunny.21 mph21%29.86 "Hg10 mi
1:00 PM88 °FSunny.16 mph29%29.86 "Hg10 mi
12:00 PM88 °FSunny.16 mph25%29.89 "Hg10 mi
11:00 AM86 °FSunny.14 mph35%29.92 "Hg10 mi
10:00 AM84 °FSunny.16 mph43%29.92 "Hg10 mi
9:00 AM81 °FSunny.14 mph54%29.89 "Hg10 mi
8:00 AM77 °FSunny.12 mph61%29.89 "Hg10 mi
7:00 AM77 °FSunny.8 mph65%29.86 "Hg10 mi
6:00 AM73 °FClear.8 mph69%29.83 "Hg10 mi
5:00 AM75 °FClear.6 mph65%29.83 "Hg10 mi
4:00 AM75 °FClear.7 mph65%29.80 "Hg10 mi
3:00 AM75 °FClear.9 mph69%29.80 "Hg10 mi
2:00 AM77 °FClear.8 mph65%29.83 "Hg10 mi
1:00 AM77 °FClear.8 mph65%29.86 "Hg10 mi
12:00 AM77 °FClear.7 mph65%29.86 "Hg10 mi
11:00 PM
Tue, Mar 31
79 °FClear.6 mph65%29.86 "Hg10 mi
10:00 PM79 °FClear.7 mph65%29.86 "Hg10 mi
9:00 PM79 °FClear.9 mph65%29.86 "Hg10 mi
8:00 PM81 °FClear.12 mph58%29.83 "Hg10 mi
7:00 PM82 °FClear.16 mph55%29.83 "Hg10 mi
6:00 PM84 °FSunny.14 mph48%29.83 "Hg10 mi
5:00 PM86 °FSunny.18 mph43%29.80 "Hg10 mi
4:00 PM88 °FSunny.21 mph40%29.80 "Hg10 mi
Weather by CustomWeather, © 2015

See weather overviewHow to use our weather pages